Cleveland, OH

5:02 PM EDT on March 23, 2017 (GMT -0400)
Cleveland-Hopkins International

Weather History for KCLE - June, 2013

Change the Weather History Date:

Friday, June 21, 2013

  Actual Average Record
Temperature  
Mean Temperature 73 °F 71 °F  
Max Temperature 86 °F 80 °F 95 °F (1941)
Min Temperature 59 °F 62 °F 44 °F (1992)
Degree Days  
Heating Degree Days 0 1  
Month to date heating degree days 39 37  
Since 1 June heating degree days 39 37  
Since 1 July heating degree days 5809 5757  
Cooling Degree Days 8 7  
Month to date cooling degree days 65 100  
Year to date cooling degree days 179 159  
Since 1 June cooling degree days 65 100  
Growing Degree Days 22 (Base 50)    
Moisture  
Dew Point 55 °F    
Average Humidity 55    
Maximum Humidity 69    
Minimum Humidity 40    
Precipitation  
Precipitation 0.00 in 0.11 in 2.33 in (2006)
Month to date precipitation 3.65 2.42  
Year to date precipitation 16.24 17.56  
Snow  
Snow 0.00 in 0.00 in - ()
Month to date snowfall 0.0 0.0  
Since 1 June snowfall 0.0 0.0  
Since 1 July snowfall 51.7 68.1  
Snow Depth 0.00 in    
Sea Level Pressure  
Sea Level Pressure 30.21 in    
Wind  
Wind Speed 6 mph (South)    
Max Wind Speed 13 mph    
Max Gust Speed 16 mph    
Visibility 10 miles    
Events      
T = Trace of Precipitation, MM = Missing Value Source: NWS Daily Summary

Daily Weather History Graph

Daily Weather History Graph

Search for Another Location

Airport or City:

Trip Planner

Search our weather history database for the weather conditions in past years. The results will help you decide how hot, cold, wet, or windy it might be!

Date:

Astronomy

Jun. 21, 2013 Rise Set
Actual Time 5:54 AM EDT 9:04 PM EDT
Civil Twilight 5:20 AM EDT 9:38 PM EDT
Nautical Twilight 4:36 AM EDT 10:22 PM EDT
Astronomical Twilight 3:44 AM EDT 11:14 PM EDT
Moon 7:12 PM EDT (6/21) 4:09 AM EDT (6/21)
Length of Visible Light 16h 18m
Length of Day
15h 10m
Waxing Gibbous, 95% of the Moon is Illuminated
Jun 21
Waxing Gibbous
Jun 23
Full
Jun 30
Last Quarter
Jul 8
New
Jul 15
First Quarter

Hourly Weather History & Observations

Time (EDT) Temp. Heat Index Dew Point Humidity Pressure Visibility Wind Dir Wind Speed Gust Speed Precip Events Conditions
12:51 AM 66.0 °F - 46.9 °F 50% 30.23 in 10.0 mi SE 4.6 mph - N/A   Partly Cloudy
1:51 AM 66.0 °F - 48.0 °F 52% 30.24 in 10.0 mi Calm Calm - N/A   Mostly Cloudy
2:51 AM 64.0 °F - 48.9 °F 58% 30.24 in 10.0 mi Calm Calm - N/A   Scattered Clouds
3:51 AM 63.0 °F - 48.9 °F 60% 30.23 in 10.0 mi SSE 3.5 mph - N/A   Partly Cloudy
4:51 AM 61.0 °F - 50.0 °F 67% 30.23 in 10.0 mi SSE 5.8 mph - N/A   Mostly Cloudy
5:51 AM 61.0 °F - 50.0 °F 67% 30.23 in 10.0 mi SSE 8.1 mph - N/A   Scattered Clouds
6:51 AM 64.0 °F - 52.0 °F 65% 30.24 in 10.0 mi SSE 8.1 mph - N/A   Partly Cloudy
7:51 AM 69.1 °F - 54.0 °F 58% 30.25 in 10.0 mi SSE 8.1 mph - N/A   Mostly Cloudy
8:51 AM 72.0 °F - 55.0 °F 55% 30.24 in 10.0 mi South 10.4 mph - N/A   Scattered Clouds
9:51 AM 75.0 °F - 57.0 °F 53% 30.26 in 10.0 mi SSE 5.8 mph - N/A   Mostly Cloudy
10:51 AM 80.1 °F 80.4 °F 57.0 °F 45% 30.25 in 10.0 mi SSW 8.1 mph - N/A   Scattered Clouds
11:51 AM 82.0 °F 82.0 °F 57.9 °F 44% 30.23 in 10.0 mi SSW 9.2 mph - N/A   Scattered Clouds
12:51 PM 84.0 °F 84.0 °F 60.1 °F 44% 30.25 in 10.0 mi WSW 8.1 mph - N/A   Mostly Cloudy
1:51 PM 82.9 °F 82.8 °F 59.0 °F 44% 30.23 in 10.0 mi West 6.9 mph - N/A   Scattered Clouds
2:51 PM 82.0 °F 82.1 °F 59.0 °F 45% 30.22 in 10.0 mi South 8.1 mph - N/A   Scattered Clouds
3:51 PM 84.9 °F 84.2 °F 57.9 °F 40% 30.20 in 10.0 mi Calm Calm - N/A   Scattered Clouds
4:51 PM 84.9 °F 84.8 °F 60.1 °F 43% 30.19 in 10.0 mi SSE 8.1 mph - N/A   Mostly Cloudy
5:51 PM 84.0 °F 83.5 °F 57.9 °F 41% 30.18 in 10.0 mi WSW 6.9 mph - N/A   Mostly Cloudy
6:51 PM 82.0 °F 82.1 °F 59.0 °F 45% 30.17 in 10.0 mi SW 6.9 mph - N/A   Overcast
7:51 PM 81.0 °F 81.0 °F 57.0 °F 44% 30.15 in 10.0 mi SSW 5.8 mph - N/A   Overcast
8:51 PM 79.0 °F - 57.0 °F 47% 30.15 in 10.0 mi South 6.9 mph - N/A   Mostly Cloudy
9:51 PM 75.0 °F - 57.9 °F 55% 30.14 in 10.0 mi SSE 6.9 mph - N/A   Overcast
10:51 PM 73.0 °F - 57.9 °F 59% 30.15 in 10.0 mi SSE 8.1 mph - N/A   Scattered Clouds
11:51 PM 72.0 °F - 57.9 °F 61% 30.14 in 10.0 mi SSE 6.9 mph - N/A   Scattered Clouds